Theta_e
320 321 322 318 319 317 316 316 312 314 314 309 309 311 314 310 317 320 305 305 309 315 318 319 323 326 328 329 331 332 333 333 334 334 335 336 336 337 337 337 337 336 336 338 339 339 339 336 333
320 321 319 311 317 317 316 312 314 313 310 306 307 308 310 312 306 305 306 302 308 312 313 313 316 318 319 321 323 325 328 329 329 329 330 331 331 333 334 335 335 335 335 336 337 337 338 336 333
319 318 317 313 312 317 316 312 311 309 307 308 308 305 307 308 304 303 301 300 305 309 310 310 312 313 314 315 317 319 319 319 320 322 324 326 326 327 328 329 331 332 333 335 336 336 337 336 334
318 314 308 315 315 313 313 311 310 309 308 307 306 308 303 302 303 301 299 298 298 301 303 306 307 309 310 311 312 313 313 311 312 313 315 317 319 321 322 324 327 328 330 332 334 334 334 334 334
312 310 313 313 313 311 309 309 309 310 309 308 306 308 305 301 301 299 298 297 297 296 297 299 300 303 304 305 306 308 308 305 305 303 302 302 304 310 313 317 318 318 322 325 327 330 331 332 331
314 309 315 315 312 311 310 308 309 309 307 306 307 305 304 300 298 298 298 297 296 295 295 294 295 297 299 299 301 302 302 301 299 298 297 297 297 298 299 299 303 310 314 316 321 323 326 328 329
314 313 314 312 312 312 311 306 308 308 307 308 304 306 302 299 298 297 297 296 295 294 294 294 295 295 295 295 295 295 296 296 297 296 295 295 295 295 296 296 296 299 300 305 312 315 320 323 327
308 311 311 309 312 313 309 308 306 309 308 302 302 307 306 300 298 297 297 295 294 294 294 294 294 294 294 294 294 294 294 294 294 294 294 294 295 294 295 295 295 295 296 296 297 301 310 317 320
308 313 314 313 311 313 307 310 304 301 304 302 302 301 300 301 298 297 296 294 293 293 294 293 293 293 293 293 293 294 294 294 294 294 294 294 294 294 294 294 294 294 294 295 295 296 297 300 309
311 312 314 310 308 311 308 309 306 306 304 303 300 297 297 298 297 296 295 294 292 292 292 293 293 293 293 293 293 293 293 293 293 293 293 293 293 293 293 294 293 294 294 294 294 295 295 295 296
309 310 312 312 310 309 309 308 304 306 307 306 304 298 296 296 295 294 295 294 293 292 292 292 292 293 293 293 293 293 293 293 293 293 292 292 292 292 292 293 293 293 293 293 293 294 294 294 294
313 311 310 312 311 309 310 304 306 304 309 303 301 298 296 295 294 293 294 293 292 292 292 292 292 293 293 293 293 293 292 292 292 291 291 292 291 291 291 291 292 292 292 292 292 292 292 293 293
312 311 310 310 309 309 305 307 308 304 303 299 297 296 296 296 294 294 294 293 292 292 292 292 292 292 292 292 292 292 291 291 291 290 290 289 289 289 289 289 290 290 290 290 291 291 291 292 294
309 311 310 309 309 308 309 307 307 305 297 297 296 297 296 295 294 292 292 292 292 292 292 292 291 291 291 291 291 291 291 290 289 289 288 288 288 288 288 288 289 289 289 289 289 289 290 291 293
308 311 308 308 308 309 306 308 307 304 297 298 296 296 295 295 293 292 292 292 292 292 291 291 291 290 290 290 290 289 289 288 288 288 288 287 287 286 286 286 287 287 288 287 288 288 289 292 293
310 308 312 310 307 308 307 312 309 300 298 300 296 295 295 294 293 292 293 292 291 291 291 291 290 290 290 289 289 289 288 288 288 287 287 286 285 286 286 286 286 286 286 286 285 285 287 289 291
308 311 311 310 306 308 307 311 308 299 298 301 297 296 295 295 292 292 292 291 291 291 291 290 290 290 289 289 289 288 288 288 287 286 286 286 286 285 284 284 285 285 284 284 284 284 284 285 287
308 311 309 310 308 306 307 307 308 303 299 302 301 297 295 295 295 293 292 291 291 291 290 290 290 289 289 288 288 288 287 287 287 286 286 286 285 284 282 283 284 283 283 283 283 283 283 285 287
310 311 310 307 305 307 305 307 309 308 301 302 300 297 296 296 296 293 291 290 290 290 289 289 289 289 289 288 287 286 286 286 286 286 285 284 283 282 282 283 283 283 283 282 282 282 282 285 285
308 309 307 306 304 304 305 306 307 306 308 307 304 300 297 297 293 290 289 289 289 290 289 289 289 288 288 287 287 286 285 285 285 285 284 283 283 282 282 283 283 283 281 281 281 281 282 283 282
307 307 307 308 304 302 301 303 303 303 303 303 303 301 298 298 295 291 289 288 288 289 289 289 288 288 287 287 286 285 284 284 284 284 284 284 283 283 282 282 281 281 280 280 280 280 280 280 280
310 305 306 306 305 308 303 310 305 305 306 305 305 300 300 297 296 292 290 288 287 288 289 289 288 287 287 286 286 285 283 282 283 282 282 282 281 280 280 281 281 281 280 279 279 279 279 278 279
309 303 304 304 304 302 304 305 306 301 305 307 306 301 299 296 295 293 290 289 288 288 289 289 288 287 286 286 285 284 283 282 282 281 280 280 279 280 281 280 279 279 279 278 278 278 278 277 278
302 304 301 298 300 306 307 307 305 304 305 305 304 302 299 295 293 292 290 289 288 288 289 288 288 288 286 285 284 283 283 282 281 280 278 277 278 279 279 279 278 278 278 278 278 278 277 277 277
304 307 311 309 307 311 300 303 308 306 303 304 307 303 297 294 291 290 289 288 287 287 288 288 288 287 287 285 284 283 282 281 279 278 277 277 277 278 278 277 277 277 277 277 277 277 276 276 277
303 307 311 307 307 308 299 306 308 302 305 301 299 297 293 292 289 289 289 288 288 287 287 288 287 287 286 284 284 282 281 280 279 277 276 276 276 276 276 276 276 276 276 276 276 276 276 276 276
304 306 305 306 287 301 307 305 304 302 301 299 298 293 293 292 289 288 288 288 287 287 287 287 287 287 285 284 283 281 280 279 278 277 276 276 276 275 275 275 275 275 275 275 275 275 275 275 275
302 300 306 305 308 305 308 307 308 306 305 303 301 299 295 292 288 287 287 287 287 287 287 287 287 286 284 283 281 280 279 278 277 276 277 275 275 275 274 274 274 274 274 274 274 274 274 274 274
300 301 300 303 305 307 308 310 303 305 304 304 303 299 296 293 289 287 287 287 286 286 287 286 286 284 283 281 280 278 277 277 276 275 275 274 274 274 273 273 273 273 273 273 273 273 273 273 273
300 303 303 307 306 301 303 310 306 305 303 301 302 298 295 292 289 287 286 286 285 285 284 284 284 283 281 280 278 277 276 275 275 275 274 273 273 273 273 272 272 272 271 271 271 271 271 272 272
Wind_Speed
2 2 1 3 3 4 1 3 1 3 3 0 1 2 5 3 2 2 7 4 3 7 10 12 13 15 16 15 12 9 8 9 12 12 13 13 10 11 9 9 10 10 11 12 12 12 12 11 12
4 2 3 2 4 3 2 2 5 4 5 8 5 2 2 2 1 4 5 3 5 8 9 13 15 16 17 17 17 17 15 11 11 14 12 10 10 9 11 12 10 11 12 13 13 14 14 16 15
3 1 3 4 3 4 4 4 5 2 8 3 4 3 4 5 3 5 6 6 8 9 9 12 14 15 16 17 15 15 16 15 14 14 14 16 15 14 14 11 10 13 14 13 13 14 15 16 17
3 4 3 3 3 3 3 5 5 9 2 2 3 4 1 1 7 8 11 10 11 11 10 12 14 15 16 17 17 17 15 15 14 9 9 8 9 10 13 14 16 14 14 15 15 15 15 17 18
4 3 3 3 2 2 3 5 9 8 4 4 4 5 3 2 11 15 14 13 13 13 11 12 13 14 14 15 16 16 15 15 14 12 11 11 11 10 10 10 12 15 15 13 15 16 15 15 18
3 3 3 2 3 3 3 5 6 4 3 3 3 7 5 10 17 16 15 13 12 12 12 13 13 14 15 15 15 15 14 14 13 12 10 8 8 10 11 12 11 11 13 14 13 13 16 16 17
5 3 3 2 3 2 5 7 5 6 7 6 6 7 2 12 17 17 15 12 11 10 10 11 10 10 11 11 13 13 15 15 15 15 14 14 13 12 12 12 13 14 14 14 16 17 18 16 16
4 4 3 3 4 5 6 4 1 4 4 3 4 6 4 13 21 18 14 11 9 9 9 9 9 9 10 12 13 13 14 15 15 16 16 17 17 17 16 16 16 16 16 17 17 17 18 19 19
3 4 1 4 5 3 3 3 2 1 4 3 5 3 1 23 25 20 16 13 10 8 7 6 7 8 10 11 13 13 14 14 14 16 17 18 19 19 20 20 20 19 18 17 17 17 17 20 20
4 3 6 4 4 2 4 4 6 3 3 5 4 3 6 32 30 25 21 17 12 9 8 6 6 8 9 11 11 12 13 14 14 15 16 17 18 19 19 20 21 22 21 20 19 18 18 19 21
2 5 4 3 4 2 4 2 5 6 5 10 9 8 15 20 23 20 21 19 16 11 8 6 6 6 6 7 9 10 11 12 13 15 16 17 18 19 20 21 22 23 24 25 25 24 24 23 23
1 1 3 2 3 4 4 6 4 8 6 1 6 16 19 18 21 23 24 22 19 14 9 7 5 5 5 6 7 9 10 12 14 16 16 18 19 20 21 22 23 23 24 25 27 26 25 25 25
2 2 2 3 3 3 5 6 6 9 9 1 7 14 17 18 19 24 25 22 19 16 13 11 7 5 5 4 7 8 10 12 13 13 14 17 19 20 21 22 23 23 23 22 23 26 27 27 25
3 2 4 3 2 2 4 2 0 3 5 6 9 15 15 17 22 21 25 25 24 21 16 12 8 5 4 4 5 6 7 8 9 11 13 15 18 19 20 22 22 23 24 25 23 23 23 25 25
2 3 5 4 2 4 4 8 10 4 5 8 11 11 13 17 22 26 31 30 28 23 17 13 10 7 5 4 3 4 5 8 8 11 12 14 16 18 20 22 23 24 26 25 23 23 20 20 23
2 3 1 3 4 1 5 10 8 6 8 11 11 11 14 16 21 25 32 29 25 23 19 16 13 10 7 4 2 1 3 6 7 10 11 13 15 17 20 21 22 25 25 24 23 20 20 20 21
5 4 4 7 8 2 6 10 6 5 7 11 11 13 14 12 14 29 33 31 29 27 23 20 16 12 8 5 2 2 3 6 8 10 12 15 17 18 21 22 22 24 24 23 22 21 21 22 22
6 4 5 6 4 4 5 17 18 7 9 17 14 13 14 16 22 28 35 33 30 28 23 19 16 13 9 6 4 4 5 7 8 12 12 16 17 19 20 22 22 23 21 21 22 21 22 19 21
3 4 7 4 4 4 9 17 20 20 9 16 15 12 16 21 18 23 34 35 31 28 25 22 19 15 13 10 7 6 6 9 8 12 13 17 18 19 22 23 24 25 23 25 25 21 21 19 18
3 3 7 7 2 6 8 18 15 17 21 16 18 13 16 13 12 20 29 36 36 34 30 25 20 17 16 14 10 6 7 7 12 14 15 18 19 21 22 24 26 27 26 26 22 22 23 19 13
5 6 5 8 4 4 7 9 7 7 9 13 13 11 13 17 17 17 25 34 36 37 35 29 24 19 17 14 11 9 9 9 14 13 19 20 21 22 23 25 26 26 24 23 23 19 19 22 21
5 6 3 2 2 4 3 15 4 7 10 9 12 10 14 14 13 15 22 30 34 37 36 32 26 20 16 14 13 12 10 9 12 16 20 21 21 22 22 24 26 27 25 25 22 19 19 21 25
7 3 4 1 3 3 4 5 4 3 8 18 10 9 10 12 15 17 21 34 37 39 38 33 29 21 15 13 12 12 13 14 17 19 20 22 21 22 24 24 25 26 25 24 24 23 23 23 27
5 4 4 3 2 2 8 10 5 6 9 8 9 7 7 8 11 12 21 26 30 35 38 33 30 25 16 12 11 12 13 15 16 18 18 17 20 24 25 25 25 26 24 25 25 25 26 27 30
3 5 4 5 2 9 5 4 13 6 10 12 14 8 6 6 7 9 13 20 26 34 39 35 32 28 20 14 12 13 14 14 15 18 18 19 22 25 25 25 24 26 25 26 28 28 30 30 30
6 8 6 9 5 20 4 9 10 16 16 7 6 7 5 7 7 11 14 22 28 32 37 36 32 27 21 15 13 13 13 13 15 17 18 20 22 24 26 25 23 25 26 29 29 30 32 31 32
5 6 3 2 2 5 6 13 6 6 12 5 12 6 10 9 9 12 13 23 26 31 37 37 32 27 20 15 13 12 11 12 16 17 19 21 24 23 23 24 25 26 26 27 28 32 34 32 33
5 4 3 1 3 7 17 28 18 11 15 11 11 15 11 7 8 10 12 20 24 30 36 35 32 28 19 14 12 11 11 12 15 17 19 22 24 25 24 25 25 27 27 26 28 32 33 32 33
3 3 1 2 4 6 13 16 5 8 10 12 12 8 9 9 9 11 11 21 26 31 37 34 31 23 17 13 10 9 10 13 15 18 20 22 22 24 25 26 27 28 30 28 29 32 33 33 34
3 9 10 6 7 4 2 29 3 1 9 8 8 7 6 8 8 10 12 19 24 29 30 33 29 22 15 10 7 7 9 11 14 17 18 20 22 24 25 26 28 30 31 29 30 32 31 33 33
Wind_Direction
147 158 108 43 64 65 119 217 165 154 162 25 60 178 151 64 142 172 128 54 76 71 61 52 44 51 49 53 55 56 49 45 41 38 38 33 20 5 349 331 318 318 321 324 325 328 329 321 320
138 146 64 80 87 78 260 226 201 190 137 124 84 82 69 130 131 129 162 49 105 94 83 66 63 58 57 57 56 54 56 54 51 47 42 33 20 14 7 1 347 330 323 317 316 318 315 315 317
147 151 88 97 117 162 188 199 177 104 147 151 115 36 154 162 129 131 124 114 118 110 99 75 65 65 63 62 62 58 55 51 43 38 35 35 28 28 27 8 350 352 344 333 322 310 306 307 309
155 34 44 82 164 216 201 170 150 137 220 128 134 134 103 193 160 151 142 122 111 107 105 83 72 69 66 65 64 63 59 54 49 38 26 13 360 6 16 18 19 11 357 347 336 323 311 302 304
60 54 59 91 217 229 235 181 157 166 158 148 176 180 187 189 150 149 145 129 116 106 98 95 83 74 71 68 66 63 60 55 50 46 40 32 27 15 347 336 343 3 6 3 349 337 318 303 300
49 97 63 235 233 239 252 164 158 167 138 146 131 149 199 173 159 152 149 139 122 108 96 86 81 74 67 66 63 61 58 53 47 41 31 11 357 353 347 343 331 325 339 336 311 324 335 317 305
117 91 202 200 231 219 214 149 175 166 158 223 139 154 228 185 170 156 149 141 127 110 98 88 84 79 74 71 65 57 51 46 43 37 30 24 17 6 356 343 335 347 341 323 309 320 304 304 319
105 88 124 232 206 253 179 133 99 157 194 87 158 198 221 199 174 163 154 143 134 125 110 96 91 82 70 64 63 58 52 47 39 33 27 21 15 10 7 0 351 345 328 321 319 307 306 306 296
137 70 210 234 159 244 159 152 26 47 124 230 200 177 263 172 169 167 161 159 148 138 131 111 93 86 74 67 60 55 50 44 36 29 22 16 13 8 7 5 2 355 347 338 326 317 310 303 301
89 114 217 192 205 254 184 186 169 167 171 241 251 212 164 162 170 173 178 172 166 152 133 117 105 86 74 69 61 53 48 42 33 26 21 19 13 8 4 2 359 356 352 349 341 334 323 315 316
186 166 208 227 213 192 165 214 162 161 230 221 208 166 166 169 177 181 186 183 176 161 148 128 97 96 90 75 62 55 46 40 31 24 20 17 11 7 6 3 0 357 354 349 347 343 338 333 325
164 196 201 266 184 153 196 132 222 201 231 99 213 170 169 179 184 187 186 182 176 169 161 150 137 135 98 71 58 47 39 34 28 21 14 10 7 6 3 1 360 359 354 349 345 340 335 330 326
164 239 218 277 266 224 144 231 234 239 239 160 149 165 182 187 193 196 193 185 176 176 177 175 162 137 104 80 56 44 34 26 23 16 12 9 6 3 360 359 359 357 354 351 344 339 333 328 322
181 263 276 293 260 242 230 279 236 237 138 165 170 190 191 192 190 188 188 185 188 187 183 178 165 144 125 91 61 45 31 19 14 9 6 4 3 359 354 353 353 354 352 349 344 338 331 323 319
125 316 320 222 210 239 169 286 230 203 173 193 203 200 198 204 193 193 191 192 192 190 184 181 175 167 155 129 74 42 19 9 359 358 354 353 351 350 350 348 348 349 347 345 343 338 328 318 316
81 61 37 212 159 221 152 266 266 163 169 226 215 209 205 208 208 202 199 199 193 187 187 184 184 184 179 161 109 26 343 351 345 347 342 340 343 343 342 342 343 343 344 343 338 335 326 321 313
1 249 223 300 198 143 182 272 236 156 205 243 222 216 211 212 213 209 205 198 191 192 189 188 189 191 188 187 213 288 318 332 332 336 332 335 335 335 335 337 338 340 340 337 335 327 328 320 316
225 245 251 240 221 207 210 255 271 223 213 243 233 217 210 214 217 206 205 200 194 191 191 190 190 194 198 211 246 286 286 313 317 325 321 323 327 329 327 330 334 336 333 331 329 325 324 317 315
163 197 237 245 231 206 232 249 258 272 234 252 243 214 212 221 216 201 201 199 196 193 190 192 192 196 202 211 234 250 266 308 305 308 306 320 323 325 326 328 330 331 330 328 327 321 322 320 327
166 213 259 284 262 198 272 262 259 255 258 250 249 227 222 222 195 191 193 196 197 194 194 191 195 198 203 213 226 248 279 293 298 303 307 315 316 321 324 327 328 328 326 325 321 320 323 315 332
205 194 226 234 338 254 313 268 236 274 248 265 245 224 214 213 205 196 191 194 195 197 196 195 194 195 202 209 222 244 266 280 294 304 308 313 316 322 325 325 323 323 320 314 313 306 308 306 307
236 208 204 289 36 251 360 296 243 245 269 256 259 204 221 209 208 198 194 194 195 199 199 200 196 194 197 206 218 236 250 264 283 294 300 308 316 320 324 323 320 316 312 309 306 301 296 295 289
226 121 137 147 213 26 255 270 233 13 265 263 266 223 220 210 200 197 196 198 197 196 199 199 198 196 198 209 225 241 257 273 289 297 305 310 315 320 322 321 317 311 304 301 297 294 286 280 275
137 98 68 65 105 243 224 202 165 182 212 256 267 240 213 208 204 203 199 196 196 194 199 199 197 199 202 213 228 245 261 278 289 302 302 302 314 319 319 320 313 304 296 294 292 287 279 275 274
94 67 321 312 329 253 140 211 259 229 232 221 237 245 216 215 196 187 183 188 190 193 197 197 198 199 203 214 226 243 261 275 287 298 305 310 317 316 315 315 306 296 292 287 285 283 278 275 270
170 168 168 250 263 290 141 245 274 223 242 234 248 251 233 227 194 196 195 195 193 191 192 195 198 200 203 216 233 247 264 279 292 302 307 311 310 309 313 308 295 290 287 283 285 282 277 274 271
179 187 167 92 121 296 242 263 288 221 258 261 252 231 242 231 201 201 195 196 194 189 190 195 198 201 204 217 234 253 271 290 300 306 309 315 314 312 306 298 294 293 291 289 287 280 279 277 273
183 162 92 356 256 260 270 276 270 216 236 239 246 238 227 236 207 201 197 195 196 191 189 196 199 197 203 217 236 258 279 296 303 310 320 319 316 312 305 300 299 298 295 292 288 283 280 278 275
136 211 224 187 158 205 276 283 183 186 201 217 235 230 214 217 211 203 199 195 192 189 189 191 191 190 198 214 235 268 297 309 318 322 324 317 314 310 305 302 302 300 297 295 290 283 283 281 279
179 193 174 193 238 238 137 271 346 61 214 218 234 205 223 224 213 203 193 184 186 187 185 184 186 190 195 205 239 277 303 315 319 319 313 316 311 310 307 308 306 302 300 298 292 289 287 284 280